| time (UTC) | temp C | wind direction | speed KPH | gust KPH | rain 1hr cm | rain 24hr cm | rain mn cm | humidity % | barometer mb |
| 20260506103238 | 12 | 48 | 9.7 | 19.3 | 0.00 | 0.00 | 0.00 | 65 | 1006.1 |
| 20260506102737 | 13 | 30 | 9.7 | 17.7 | 0.00 | 0.00 | 0.00 | 65 | 1006.1 |
| 20260506102248 | 13 | 3 | 8.0 | 17.7 | 0.00 | 0.00 | 0.00 | 67 | 1006.1 |
| 20260506101737 | 12 | 24 | 8.0 | 19.3 | 0.00 | 0.00 | 0.00 | 66 | 1006.1 |
| 20260506101237 | 12 | 0 | 8.0 | 19.3 | 0.00 | 0.00 | 0.00 | 67 | 1006.1 |
| 20260506100737 | 12 | 25 | 9.7 | 19.3 | 0.00 | 0.00 | 0.00 | 67 | 1006.1 |
| 20260506095737 | 12 | 23 | 12.9 | 20.9 | 0.00 | 0.00 | 0.00 | 67 | 1006.1 |
| 20260506095244 | 12 | 0 | 8.0 | 16.1 | 0.00 | 0.00 | 0.00 | 67 | 1006.1 |
| 20260506094736 | 12 | 14 | 8.0 | 17.7 | 0.00 | 0.00 | 0.00 | 66 | 1006.1 |
| 20260506094236 | 12 | 75 | 12.9 | 19.3 | 0.00 | 0.00 | 0.00 | 66 | 1006.1 |
| 20260506093235 | 12 | 3 | 8.0 | 17.7 | 0.00 | 0.00 | 0.00 | 67 | 1006.0 |
| 20260506092736 | 12 | 14 | 9.7 | 20.9 | 0.00 | 0.00 | 0.00 | 65 | 1006.1 |
| 20260506092240 | 12 | 17 | 8.0 | 20.9 | 0.00 | 0.00 | 0.00 | 65 | 1006.0 |
| 20260506091732 | 12 | 13 | 11.3 | 19.3 | 0.00 | 0.00 | 0.00 | 67 | 1006.0 |
| 20260506091232 | 12 | 79 | 6.4 | 19.3 | 0.00 | 0.00 | 0.00 | 68 | 1006.0 |
| 20260506090733 | 12 | 54 | 9.7 | 19.3 | 0.00 | 0.00 | 0.00 | 66 | 1006.1 |
| 20260506090231 | 11 | 37 | 8.0 | 19.3 | 0.00 | 0.00 | 0.00 | 68 | 1006.1 |
| 20260506085729 | 11 | 48 | 11.3 | 20.9 | 0.00 | 0.00 | 0.00 | 67 | 1006.0 |
| 20260506085229 | 11 | 14 | 9.7 | 20.9 | 0.00 | 0.00 | 0.00 | 67 | 1006.0 |
| 20260506084729 | 11 | 20 | 11.3 | 19.3 | 0.00 | 0.00 | 0.00 | 66 | 1005.9 |
| 20260506083751 | 11 | 4 | 11.3 | 20.9 | 0.00 | 0.00 | 0.00 | 66 | 1005.9 |
| 20260506083229 | 11 | 6 | 6.4 | 19.3 | 0.00 | 0.00 | 0.00 | 67 | 1005.8 |
| 20260506082729 | 11 | 20 | 9.7 | 22.5 | 0.00 | 0.00 | 0.00 | 66 | 1005.9 |
| 20260506082228 | 11 | 14 | 12.9 | 22.5 | 0.00 | 0.00 | 0.00 | 66 | 1005.9 |
| 20260506081730 | 11 | 28 | 8.0 | 17.7 | 0.00 | 0.00 | 0.00 | 67 | 1005.9 |
| 20260506081229 | 11 | 32 | 8.0 | 17.7 | 0.00 | 0.00 | 0.00 | 66 | 1005.8 |
| 20260506080729 | 11 | 7 | 8.0 | 19.3 | 0.00 | 0.00 | 0.00 | 67 | 1005.8 |
| 20260506073230 | 10 | 63 | 9.7 | 20.9 | 0.00 | 0.03 | 0.00 | 65 | 1005.7 |
| 20260506072230 | 10 | 10 | 12.9 | 19.3 | 0.00 | 0.03 | 0.00 | 65 | 1005.8 |
| 20260506071728 | 10 | 34 | 9.7 | 19.3 | 0.00 | 0.03 | 0.00 | 65 | 1005.8 |
| 20260506071228 | 10 | 52 | 9.7 | 19.3 | 0.00 | 0.05 | 0.00 | 66 | 1005.8 |
| 20260506070728 | 10 | 35 | 9.7 | 20.9 | 0.00 | 0.05 | 0.00 | 65 | 1005.8 |
| 20260506070229 | 10 | 94 | 9.7 | 24.1 | 0.00 | 0.05 | 0.00 | 65 | 1005.8 |
| 20260506062228 | 10 | 79 | 11.3 | 17.7 | 0.00 | 0.05 | 0.00 | 64 | 1005.8 |
| 20260506061729 | 10 | 42 | 4.8 | 19.3 | 0.00 | 0.08 | 0.00 | 66 | 1005.8 |
| 20260506061229 | 10 | 61 | 6.4 | 20.9 | 0.00 | 0.08 | 0.00 | 66 | 1005.8 |
| 20260506060729 | 10 | 30 | 8.0 | 20.9 | 0.00 | 0.10 | 0.00 | 64 | 1005.8 |
| 20260506051229 | 9 | 38 | 9.7 | 19.3 | 0.00 | 0.15 | 0.00 | 67 | 1006.0 |
| 20260506050728 | 9 | 27 | 6.4 | 19.3 | 0.00 | 0.15 | 0.00 | 67 | 1005.9 |
| 20260506050228 | 9 | 61 | 11.3 | 19.3 | 0.00 | 0.15 | 0.00 | 66 | 1006.0 |
| 20260506044728 | 9 | 52 | 9.7 | 19.3 | 0.00 | 0.18 | 0.00 | 68 | 1006.1 |
| 20260506043728 | 9 | 41 | 8.0 | 17.7 | 0.00 | 0.20 | 0.00 | 69 | 1006.0 |
| 20260506043227 | 9 | 75 | 6.4 | 17.7 | 0.00 | 0.23 | 0.00 | 69 | 1006.0 |
| 20260506042726 | 9 | 10 | 6.4 | 17.7 | 0.00 | 0.23 | 0.00 | 70 | 1006.0 |
| 20260506042227 | 9 | 38 | 4.8 | 19.3 | 0.00 | 0.25 | 0.00 | 70 | 1006.0 |
| 20260506041727 | 9 | 38 | 8.0 | 19.3 | 0.00 | 0.25 | 0.00 | 70 | 1005.9 |
| 20260506041228 | 8 | 41 | 11.3 | 16.1 | 0.00 | 0.25 | 0.00 | 71 | 1006.0 |
| 20260506040726 | 8 | 1 | 6.4 | 17.7 | 0.00 | 0.25 | 0.00 | 72 | 1005.9 |
| 20260506040226 | 8 | 51 | 6.4 | 17.7 | 0.00 | 0.25 | 0.00 | 72 | 1006.0 |
| 20260506035226 | 8 | 55 | 8.0 | 17.7 | 0.00 | 0.25 | 0.00 | 73 | 1005.9 |
| 20260506034726 | 8 | 66 | 9.7 | 17.7 | 0.00 | 0.25 | 0.00 | 73 | 1005.9 |
| 20260506034226 | 8 | 61 | 8.0 | 16.1 | 0.00 | 0.25 | 0.00 | 74 | 1006.0 |
| 20260506033727 | 8 | 34 | 6.4 | 14.5 | 0.00 | 0.25 | 0.00 | 75 | 1005.9 |
| 20260506033226 | 8 | 38 | 4.8 | 11.3 | 0.00 | 0.25 | 0.00 | 74 | 1006.0 |
| 20260506032725 | 8 | 83 | 6.4 | 11.3 | 0.00 | 0.25 | 0.00 | 75 | 1006.0 |
| 20260506031724 | 8 | 30 | 6.4 | 16.1 | 0.00 | 0.25 | 0.00 | 75 | 1006.1 |
| 20260506031227 | 8 | 25 | 4.8 | 9.7 | 0.00 | 0.25 | 0.00 | 75 | 1006.1 |
| 20260506030223 | 8 | 358 | 4.8 | 11.3 | 0.00 | 0.25 | 0.00 | 75 | 1006.2 |
| 20260506025724 | 8 | 58 | 3.2 | 16.1 | 0.00 | 0.25 | 0.00 | 76 | 1006.2 |
| 20260506025224 | 8 | 48 | 8.0 | 16.1 | 0.00 | 0.25 | 0.00 | 76 | 1006.1 |
| 20260506024724 | 8 | 0 | 6.4 | 11.3 | 0.00 | 0.25 | 0.00 | 75 | 1006.1 |
| 20260506024223 | 8 | 18 | 6.4 | 11.3 | 0.00 | 0.25 | 0.00 | 75 | 1006.2 |
| 20260506023724 | 8 | 24 | 4.8 | 11.3 | 0.00 | 0.25 | 0.00 | 75 | 1006.2 |
| 20260506023226 | 8 | 350 | 3.2 | 11.3 | 0.00 | 0.25 | 0.00 | 75 | 1006.3 |
| 20260506022723 | 8 | 56 | 6.4 | 11.3 | 0.00 | 0.25 | 0.00 | 75 | 1006.4 |
| 20260506021722 | 8 | 58 | 9.7 | 19.3 | 0.00 | 0.25 | 0.00 | 74 | 1006.4 |
| 20260506021224 | 8 | 20 | 8.0 | 16.1 | 0.00 | 0.25 | 0.00 | 75 | 1006.4 |
| 20260506020724 | 8 | 69 | 6.4 | 16.1 | 0.00 | 0.25 | 0.00 | 74 | 1006.5 |
| 20260506020223 | 8 | 66 | 8.0 | 14.5 | 0.00 | 0.25 | 0.00 | 75 | 1006.6 |
| 20260506014222 | 8 | 31 | 6.4 | 14.5 | 0.00 | 0.25 | 0.00 | 74 | 1006.5 |
| 20260506013722 | 8 | 17 | 6.4 | 9.7 | 0.00 | 0.25 | 0.00 | 73 | 1006.6 |
| 20260506012722 | 8 | 39 | 3.2 | 9.7 | 0.00 | 0.25 | 0.00 | 72 | 1006.7 |
| 20260506012223 | 8 | 59 | 3.2 | 9.7 | 0.00 | 0.25 | 0.00 | 72 | 1006.8 |
| 20260506011722 | 8 | 54 | 3.2 | 14.5 | 0.00 | 0.25 | 0.00 | 71 | 1006.9 |
| 20260506011222 | 8 | 63 | 6.4 | 14.5 | 0.00 | 0.25 | 0.00 | 71 | 1006.9 |
| 20260506005720 | 8 | 52 | 9.7 | 17.7 | 0.00 | 0.25 | 0.00 | 70 | 1006.8 |
| 20260506005220 | 8 | 21 | 9.7 | 17.7 | 0.00 | 0.25 | 0.00 | 71 | 1006.8 |
| 20260506004721 | 8 | 47 | 9.7 | 14.5 | 0.00 | 0.25 | 0.00 | 71 | 1006.8 |
| 20260506003720 | 8 | 38 | 6.4 | 14.5 | 0.00 | 0.25 | 0.00 | 72 | 1007.0 |
| 20260506003222 | 8 | 16 | 6.4 | 14.5 | 0.00 | 0.25 | 0.00 | 72 | 1006.9 |
| 20260506002721 | 8 | 52 | 4.8 | 14.5 | 0.00 | 0.25 | 0.00 | 72 | 1007.1 |
| 20260506002218 | 8 | 35 | 6.4 | 14.5 | 0.00 | 0.25 | 0.00 | 73 | 1007.1 |
| 20260506001719 | 8 | 20 | 6.4 | 17.7 | 0.00 | 0.25 | 0.00 | 73 | 1007.1 |
| 20260506001220 | 8 | 11 | 6.4 | 17.7 | 0.00 | 0.25 | 0.00 | 73 | 1007.1 |
| 20260506000719 | 8 | 28 | 6.4 | 8.0 | 0.00 | 0.25 | 0.00 | 74 | 1007.1 |
| 20260506000219 | 8 | 11 | 6.4 | 9.7 | 0.00 | 0.25 | 0.00 | 75 | 1007.2 |
| 20260505235220 | 8 | 10 | 4.8 | 9.7 | 0.00 | 0.25 | 0.00 | 75 | 1007.2 |
| 20260505234718 | 8 | 14 | 4.8 | 9.7 | 0.00 | 0.25 | 0.00 | 75 | 1007.3 |
| 20260505234218 | 8 | 16 | 4.8 | 9.7 | 0.00 | 0.25 | 0.00 | 76 | 1007.3 |
| 20260505233719 | 8 | 55 | 4.8 | 9.7 | 0.00 | 0.25 | 0.00 | 76 | 1007.4 |
| 20260505233217 | 8 | 54 | 4.8 | 9.7 | 0.00 | 0.25 | 0.00 | 77 | 1007.4 |
| 20260505232718 | 8 | 61 | 3.2 | 9.7 | 0.00 | 0.25 | 0.00 | 77 | 1007.4 |
| 20260505232218 | 8 | 18 | 6.4 | 8.0 | 0.00 | 0.25 | 0.00 | 77 | 1007.4 |
| 20260505231720 | 8 | 47 | 4.8 | 8.0 | 0.00 | 0.25 | 0.00 | 78 | 1007.3 |
| 20260505231218 | 8 | 55 | 1.6 | 6.4 | 0.00 | 0.25 | 0.00 | 77 | 1007.4 |
| 20260505230717 | 8 | 48 | 1.6 | 6.4 | 0.00 | 0.25 | 0.00 | 77 | 1007.4 |
| 20260505225717 | 8 | 31 | 3.2 | 8.0 | 0.00 | 0.25 | 0.00 | 76 | 1007.4 |
| 20260505225216 | 8 | 54 | 4.8 | 11.3 | 0.00 | 0.25 | 0.00 | 76 | 1007.4 |
| 20260505224716 | 8 | 62 | 6.4 | 11.3 | 0.00 | 0.25 | 0.00 | 76 | 1007.5 |
| 20260505224218 | 8 | 76 | 4.8 | 9.7 | 0.00 | 0.25 | 0.00 | 77 | 1007.6 |
| 20260505223717 | 8 | 83 | 6.4 | 9.7 | 0.00 | 0.25 | 0.00 | 77 | 1007.6 |
| 20260505223226 | 8 | 92 | 3.2 | 11.3 | 0.00 | 0.25 | 0.00 | 77 | 1007.6 |
| 20260505222717 | 8 | 38 | 4.8 | 11.3 | 0.00 | 0.25 | 0.00 | 77 | 1007.7 |
| 20260505222217 | 8 | 73 | 4.8 | 8.0 | 0.00 | 0.25 | 0.00 | 78 | 1007.8 |
| 20260505221739 | 9 | 78 | 3.2 | 11.3 | 0.00 | 0.25 | 0.00 | 78 | 1007.9 |
| 20260505221615 | 9 | 59 | 4.8 | 11.3 | 0.00 | 0.25 | 0.00 | 78 | 1007.8 |
| 20260505220714 | 9 | 54 | 4.8 | 14.5 | 0.00 | 0.25 | 0.00 | 77 | 1007.9 |
| 20260505214802 | 9 | 42 | 6.4 | 19.3 | 0.00 | 0.25 | 0.25 | 77 | 1008.0 |
| 20260505214258 | 10 | 37 | 3.2 | 19.3 | 0.00 | 0.25 | 0.25 | 77 | 1007.9 |
| 20260505213810 | 10 | 35 | 4.8 | 16.1 | 0.00 | 0.25 | 0.25 | 78 | 1007.9 |
| 20260505213311 | 10 | 51 | 8.0 | 16.1 | 0.00 | 0.25 | 0.25 | 77 | 1007.9 |
| 20260505212809 | 10 | 72 | 6.4 | 17.7 | 0.00 | 0.25 | 0.25 | 77 | 1007.9 |
| 20260505212309 | 10 | 27 | 8.0 | 17.7 | 0.00 | 0.25 | 0.25 | 77 | 1007.9 |
| 20260505211817 | 10 | 86 | 6.4 | 14.5 | 0.00 | 0.25 | 0.25 | 77 | 1007.8 |
| 20260505211241 | 10 | 24 | 6.4 | 17.7 | 0.00 | 0.25 | 0.25 | 78 | 1007.7 |
| 20260505210751 | 10 | 20 | 4.8 | 17.7 | 0.00 | 0.25 | 0.25 | 77 | 1007.9 |
| 20260505210244 | 10 | 16 | 9.7 | 17.7 | 0.00 | 0.25 | 0.25 | 77 | 1007.9 |
| 20260505205752 | 10 | 48 | 8.0 | 17.7 | 0.00 | 0.25 | 0.25 | 76 | 1008.0 |
| 20260505205251 | 10 | 34 | 9.7 | 19.3 | 0.00 | 0.25 | 0.25 | 76 | 1008.1 |
| 20260505204804 | 10 | 27 | 8.0 | 20.9 | 0.00 | 0.25 | 0.25 | 76 | 1008.0 |
| 20260505204227 | 10 | 52 | 9.7 | 20.9 | 0.00 | 0.25 | 0.25 | 75 | 1007.9 |
| 20260505203733 | 10 | 59 | 12.9 | 22.5 | 0.00 | 0.25 | 0.25 | 75 | 1007.9 |
| 20260505203220 | 10 | 58 | 11.3 | 22.5 | 0.00 | 0.25 | 0.25 | 74 | 1007.9 |
| 20260505202727 | 10 | 30 | 11.3 | 22.5 | 0.00 | 0.25 | 0.25 | 74 | 1007.9 |
| 20260505202212 | 10 | 23 | 9.7 | 22.5 | 0.00 | 0.25 | 0.25 | 74 | 1007.8 |
| 20260505201712 | 10 | 38 | 11.3 | 17.7 | 0.00 | 0.25 | 0.25 | 74 | 1007.8 |
| 20260505201212 | 10 | 45 | 8.0 | 17.7 | 0.00 | 0.25 | 0.25 | 74 | 1007.8 |
| 20260505200712 | 10 | 30 | 11.3 | 19.3 | 0.00 | 0.25 | 0.25 | 73 | 1007.7 |
| 20260505200211 | 10 | 23 | 9.7 | 19.3 | 0.00 | 0.25 | 0.25 | 73 | 1007.6 |
| 20260505195710 | 10 | 6 | 11.3 | 20.9 | 0.00 | 0.25 | 0.25 | 73 | 1007.7 |
| 20260505195210 | 10 | 24 | 11.3 | 20.9 | 0.00 | 0.25 | 0.25 | 73 | 1007.7 |
| 20260505194711 | 10 | 23 | 6.4 | 14.5 | 0.00 | 0.25 | 0.25 | 76 | 1007.6 |
| 20260505194211 | 11 | 6 | 6.4 | 11.3 | 0.00 | 0.25 | 0.25 | 76 | 1007.6 |
| 20260505193712 | 11 | 30 | 8.0 | 14.5 | 0.00 | 0.25 | 0.25 | 75 | 1007.7 |
| 20260505193211 | 11 | 0 | 6.4 | 14.5 | 0.00 | 0.25 | 0.25 | 75 | 1007.6 |
| 20260505191712 | 11 | 13 | 6.4 | 14.5 | 0.00 | 0.25 | 0.25 | 75 | 1007.6 |
| 20260505191209 | 11 | 23 | 6.4 | 14.5 | 0.00 | 0.25 | 0.25 | 75 | 1007.6 |
| 20260505190709 | 11 | 13 | 4.8 | 14.5 | 0.00 | 0.25 | 0.25 | 75 | 1007.6 |
| 20260505190212 | 11 | 357 | 4.8 | 16.1 | 0.00 | 0.25 | 0.25 | 74 | 1007.6 |
| 20260505185710 | 11 | 0 | 6.4 | 16.1 | 0.00 | 0.25 | 0.25 | 74 | 1007.5 |
| 20260505185210 | 11 | 13 | 6.4 | 11.3 | 0.00 | 0.25 | 0.25 | 74 | 1007.6 |
| 20260505184710 | 11 | 0 | 4.8 | 11.3 | 0.00 | 0.25 | 0.25 | 74 | 1007.7 |
| 20260505184210 | 12 | 21 | 4.8 | 11.3 | 0.00 | 0.25 | 0.25 | 74 | 1007.6 |
| 20260505183709 | 12 | 3 | 6.4 | 17.7 | 0.00 | 0.25 | 0.25 | 71 | 1007.6 |
| 20260505183208 | 12 | 13 | 9.7 | 20.9 | 0.00 | 0.25 | 0.25 | 67 | 1007.6 |
| 20260505182209 | 12 | 41 | 11.3 | 22.5 | 0.00 | 0.25 | 0.25 | 66 | 1007.6 |
| 20260505181710 | 12 | 55 | 9.7 | 17.7 | 0.00 | 0.25 | 0.25 | 65 | 1007.6 |
| 20260505181209 | 12 | 20 | 9.7 | 19.3 | 0.00 | 0.25 | 0.25 | 65 | 1007.7 |
| 20260505180208 | 13 | 48 | 9.7 | 19.3 | 0.00 | 0.25 | 0.25 | 65 | 1007.6 |
| 20260505175709 | 13 | 21 | 8.0 | 19.3 | 0.00 | 0.25 | 0.25 | 64 | 1007.6 |
| 20260505174708 | 13 | 31 | 9.7 | 19.3 | 0.00 | 0.25 | 0.25 | 62 | 1007.5 |
| 20260505174208 | 13 | 31 | 9.7 | 19.3 | 0.00 | 0.25 | 0.25 | 62 | 1007.6 |
| 20260505173709 | 13 | 21 | 9.7 | 17.7 | 0.00 | 0.25 | 0.25 | 62 | 1007.6 |
| 20260505173208 | 14 | 16 | 11.3 | 17.7 | 0.00 | 0.25 | 0.25 | 63 | 1007.7 |
| 20260505172708 | 14 | 28 | 8.0 | 19.3 | 0.00 | 0.25 | 0.25 | 63 | 1007.7 |
| 20260505172207 | 14 | 23 | 11.3 | 19.3 | 0.00 | 0.25 | 0.25 | 63 | 1007.7 |
| 20260505171707 | 14 | 39 | 8.0 | 19.3 | 0.00 | 0.25 | 0.25 | 63 | 1007.7 |
| 20260505171207 | 14 | 1 | 6.4 | 19.3 | 0.00 | 0.25 | 0.25 | 62 | 1007.6 |
| 20260505170706 | 15 | 24 | 9.7 | 19.3 | 0.00 | 0.25 | 0.25 | 61 | 1007.6 |
| 20260505170207 | 15 | 6 | 9.7 | 16.1 | 0.00 | 0.25 | 0.25 | 61 | 1007.6 |
| 20260505165207 | 15 | 11 | 6.4 | 11.3 | 0.00 | 0.25 | 0.25 | 62 | 1007.7 |
| 20260505164706 | 15 | 23 | 8.0 | 16.1 | 0.00 | 0.25 | 0.25 | 61 | 1007.7 |
| 20260505164206 | 15 | 30 | 6.4 | 16.1 | 0.00 | 0.25 | 0.25 | 61 | 1007.8 |
| 20260505163706 | 15 | 37 | 6.4 | 20.9 | 0.00 | 0.25 | 0.25 | 61 | 1007.8 |
| 20260505163206 | 15 | 8 | 9.7 | 20.9 | 0.00 | 0.25 | 0.25 | 61 | 1007.8 |
| 20260505162705 | 15 | 47 | 8.0 | 17.7 | 0.00 | 0.25 | 0.25 | 60 | 1007.9 |
| 20260505162208 | 15 | 37 | 9.7 | 16.1 | 0.00 | 0.25 | 0.25 | 61 | 1007.9 |
| 20260505161205 | 15 | 11 | 9.7 | 17.7 | 0.00 | 0.25 | 0.25 | 60 | 1007.8 |
| 20260505160705 | 15 | 47 | 9.7 | 17.7 | 0.00 | 0.25 | 0.25 | 61 | 1008.0 |
| 20260505160205 | 15 | 45 | 8.0 | 16.1 | 0.00 | 0.25 | 0.25 | 62 | 1008.0 |
| 20260505153204 | 14 | 75 | 3.2 | 14.5 | 0.00 | 0.25 | 0.25 | 66 | 1008.1 |
| 20260505152704 | 14 | 45 | 8.0 | 11.3 | 0.00 | 0.25 | 0.25 | 69 | 1008.1 |
| 20260505152204 | 14 | 116 | 6.4 | 11.3 | 0.00 | 0.25 | 0.25 | 68 | 1008.0 |
| 20260505151704 | 13 | 23 | 8.0 | 14.5 | 0.00 | 0.25 | 0.25 | 69 | 1008.1 |
| 20260505151204 | 13 | 21 | 4.8 | 14.5 | 0.00 | 0.25 | 0.25 | 69 | 1008.0 |
| 20260505150205 | 13 | 86 | 6.4 | 16.1 | 0.00 | 0.25 | 0.25 | 69 | 1008.1 |
| 20260505140200 | 13 | 8 | 6.4 | 17.7 | 0.00 | 0.25 | 0.25 | 72 | 1008.4 |
| 20260505130159 | 13 | 59 | 6.4 | 14.5 | 0.00 | 0.25 | 0.25 | 77 | 1008.6 |
| 20260505124659 | 12 | 51 | 6.4 | 14.5 | 0.00 | 0.25 | 0.25 | 75 | 1008.7 |
| 20260505124158 | 12 | 39 | 6.4 | 16.1 | 0.00 | 0.25 | 0.25 | 76 | 1008.7 |
| 20260505123701 | 12 | 39 | 8.0 | 16.1 | 0.00 | 0.25 | 0.25 | 76 | 1008.8 |
| 20260505123200 | 12 | 27 | 6.4 | 16.1 | 0.00 | 0.25 | 0.25 | 77 | 1008.8 |
| 20260505122657 | 12 | 52 | 6.4 | 16.1 | 0.00 | 0.25 | 0.25 | 75 | 1008.9 |
| 20260505122159 | 12 | 31 | 8.0 | 14.5 | 0.00 | 0.25 | 0.25 | 76 | 1008.9 |
| 20260505121658 | 12 | 66 | 6.4 | 16.1 | 0.00 | 0.25 | 0.25 | 78 | 1008.9 |
| 20260505121158 | 12 | 41 | 9.7 | 16.1 | 0.00 | 0.25 | 0.25 | 77 | 1008.9 |
| 20260505120657 | 12 | 16 | 8.0 | 17.7 | 0.00 | 0.25 | 0.25 | 78 | 1008.8 |
| 20260505115659 | 12 | 39 | 8.0 | 11.3 | 0.00 | 0.25 | 0.25 | 78 | 1009.0 |
| 20260505115158 | 12 | 38 | 8.0 | 11.3 | 0.00 | 0.25 | 0.25 | 79 | 1008.9 |
| 20260505114658 | 12 | 16 | 4.8 | 19.3 | 0.00 | 0.25 | 0.25 | 79 | 1009.0 |
| 20260505114205 | 12 | 16 | 11.3 | 19.3 | 0.00 | 0.25 | 0.25 | 77 | 1008.9 |
| 20260505113657 | 12 | 28 | 9.7 | 20.9 | 0.00 | 0.25 | 0.25 | 79 | 1009.0 |
| 20260505113157 | 12 | 20 | 11.3 | 20.9 | 0.00 | 0.25 | 0.25 | 78 | 1009.0 |
| 20260505112656 | 12 | 11 | 6.4 | 11.3 | 0.00 | 0.25 | 0.25 | 79 | 1009.0 |
| 20260505112157 | 12 | 65 | 9.7 | 17.7 | 0.00 | 0.25 | 0.25 | 79 | 1009.0 |
| 20260505111657 | 12 | 24 | 11.3 | 17.7 | 0.00 | 0.25 | 0.25 | 79 | 1009.0 |
| 20260505111205 | 12 | 31 | 6.4 | 17.7 | 0.00 | 0.25 | 0.25 | 80 | 1009.0 |
| 20260505110657 | 12 | 28 | 11.3 | 17.7 | 0.00 | 0.25 | 0.25 | 79 | 1009.1 |
| 20260505110157 | 11 | 55 | 9.7 | 16.1 | 0.00 | 0.25 | 0.25 | 82 | 1009.1 |